Nausori, Fiji

9:19 PM +12 on February 18, 2018 (GMT +1200)
Nausori International

Weather History for NFNA - January, 1999

Change the Weather History Date:

Saturday, January 2, 1999

  Actual Average Record
Temperature  
Mean Temperature 80 °F -  
Max Temperature 84 °F 87 °F - ()
Min Temperature 75 °F 75 °F - ()
Cooling Degree Days 14    
Growing Degree Days 30 (Base 50)    
Moisture  
Dew Point 75 °F    
Average Humidity 89    
Maximum Humidity 100    
Minimum Humidity 74    
Precipitation  
Precipitation 0.00 in 0.41 in - ()
Sea Level Pressure  
Sea Level Pressure 29.79 in    
Wind  
Wind Speed 1 mph ()    
Max Wind Speed 12 mph    
Max Gust Speed -    
Visibility 15.5 miles    
Events Rain    
T = Trace of Precipitation, MM = Missing Value Source: Averaged Metar Reports

Daily Weather History Graph

Daily Weather History Graph

Search for Another Location

Airport or City:

Trip Planner

Search our weather history database for the weather conditions in past years. The results will help you decide how hot, cold, wet, or windy it might be!

Date:

Astronomy

Jan. 02, 1999 Rise Set
Actual Time 6:33 AM +13 7:45 PM +13
Civil Twilight 6:09 AM +13 8:09 PM +13
Nautical Twilight 5:40 AM +13 8:37 PM +13
Astronomical Twilight 5:11 AM +13 9:07 PM +13
Moon 7:44 PM +13 (1/2) 6:17 AM +13 (1/2)
Length of Visible Light 13h 59m
Length of Day
13h 11m
Full, 100% of the Moon is Illuminated
Jan 2
Full
Jan 2
Full
Jan 10
Last Quarter
Jan 18
New
Jan 25
First Quarter

Hourly Weather History & Observations

Time (+13) Temp. Heat Index Dew Point Humidity Pressure Visibility Wind Dir Wind Speed Gust Speed Precip Events Conditions
12:00 AM 75.2 °F - 75.2 °F 100% 29.80 in 12.4 mi Calm Calm - N/A   Overcast
1:00 AM 75.2 °F - 75.2 °F 100% 29.80 in 18.6 mi Calm Calm - N/A   Overcast
2:00 AM 75.2 °F - 73.4 °F 94% 29.77 in 24.9 mi Calm Calm - N/A   Overcast
3:00 AM 75.2 °F - 73.4 °F 94% 29.77 in 24.9 mi SW 2.3 mph - N/A   Overcast
4:00 AM 75.2 °F - 73.4 °F 94% 29.74 in 24.9 mi SW 2.3 mph - N/A   Overcast
5:00 AM 75.2 °F - 73.4 °F 94% 29.74 in 24.9 mi Calm Calm - N/A   Mostly Cloudy
6:00 AM 75.2 °F - 73.4 °F 94% 29.74 in 28.0 mi Calm Calm - N/A   Mostly Cloudy
7:00 AM 75.2 °F - 73.4 °F 94% 29.77 in 31.1 mi Calm Calm - N/A   Mostly Cloudy
8:00 AM 77.0 °F - 75.2 °F 94% 29.80 in 31.1 mi Calm Calm - N/A   Mostly Cloudy
9:00 AM 78.8 °F - 75.2 °F 89% 29.80 in 31.1 mi Calm Calm - N/A   Mostly Cloudy
10:00 AM 80.6 °F 87.1 °F 77.0 °F 89% 29.80 in 31.1 mi Calm Calm - N/A   Mostly Cloudy
11:00 AM 82.4 °F 90.9 °F 77.0 °F 84% 29.83 in 31.1 mi Calm Calm - N/A   Mostly Cloudy
12:00 PM 82.4 °F 90.9 °F 77.0 °F 84% 29.83 in 28.0 mi West 11.5 mph - N/A   Mostly Cloudy
1:00 PM 82.4 °F 90.9 °F 77.0 °F 84% 29.83 in 31.1 mi NNW 2.3 mph - N/A   Mostly Cloudy
2:00 PM 80.6 °F 87.1 °F 77.0 °F 89% 29.80 in 31.1 mi NNW 2.3 mph - N/A   Overcast
3:00 PM 82.4 °F 90.9 °F 77.0 °F 84% 29.80 in 31.1 mi NNW 2.3 mph - N/A   Overcast
4:00 PM 84.2 °F 94.1 °F 77.0 °F 79% 29.77 in 31.1 mi Calm Calm - N/A   Mostly Cloudy
5:00 PM 84.2 °F 92.3 °F 75.2 °F 74% 29.77 in 31.1 mi South 6.9 mph - N/A   Mostly Cloudy
6:00 PM 82.4 °F 89.5 °F 75.2 °F 79% 29.77 in 31.1 mi South 4.6 mph - N/A   Mostly Cloudy
7:00 PM 82.4 °F 89.5 °F 75.2 °F 79% 29.77 in 31.1 mi SSE 4.6 mph - N/A   Mostly Cloudy
8:00 PM 80.6 °F 86.2 °F 75.2 °F 84% 29.80 in 24.9 mi Calm Calm - N/A   Mostly Cloudy
9:00 PM 80.6 °F 86.2 °F 75.2 °F 84% 29.83 in 24.9 mi Calm Calm - N/A   Mostly Cloudy
10:00 PM 77.0 °F - 75.2 °F 94% 29.83 in 24.9 mi Calm Calm - N/A Rain Light Rain Showers
11:00 PM 77.0 °F - 75.2 °F 94% 29.86 in 24.9 mi Calm Calm - N/A   Mostly Cloudy